Farmington, MO

1:22 PM CDT on September 23, 2019 (GMT -0500)
Farmington Regional

Weather History for KFAM - August, 2019

Change the Weather History Date:

Friday, August 23, 2019

  Actual Average Record
Temperature  
Mean Temperature 74 °F -  
Max Temperature 78 °F 84 °F 98 °F (2007)
Min Temperature 66 °F 63 °F 53 °F (1997)
Cooling Degree Days 8    
Growing Degree Days 24 (Base 50)    
Moisture  
Dew Point 71 °F    
Average Humidity 92    
Maximum Humidity 100    
Minimum Humidity 74    
Precipitation  
Precipitation 0.02 in - - ()
Sea Level Pressure  
Sea Level Pressure 30.07 in    
Wind  
Wind Speed 5 mph ()    
Max Wind Speed 12 mph    
Max Gust Speed 17 mph    
Visibility 6.9 miles    
Events Rain    
Averages and records for this station are not official NWS values.
T = Trace of Precipitation, MM = Missing Value Source: Averaged Metar Reports

Daily Weather History Graph

Daily Weather History Graph

Search for Another Location

Airport or City:

Astronomy

Aug. 23, 2019 Rise Set
Actual Time 6:23 AM CDT 7:44 PM CDT
Civil Twilight 5:56 AM CDT 8:11 PM CDT
Nautical Twilight 5:23 AM CDT 8:44 PM CDT
Astronomical Twilight 4:49 AM CDT 9:18 PM CDT
Moon No Moon Rise 1:52 PM CDT
Length of Visible Light 14h 14m
Length of Day
13h 20m
Waning Gibbous, 49% of the Moon is Illuminated
Aug 23
Waning Gibbous
Aug 30
New
Sep 5
First Quarter
Sep 13
Full
Sep 21
Last Quarter

Hourly Weather History & Observations

Time (CDT) Temp. Dew Point Humidity Pressure Visibility Wind Dir Wind Speed Gust Speed Precip Events Conditions
12:56 AM 71.1 °F 71.1 °F 100% 30.04 in 10.0 mi NNE 3.5 mph - N/A   Mostly Cloudy
1:48 AM 71.6 °F 71.6 °F 100% 30.02 in 7.0 mi NNE 4.6 mph - N/A   Mostly Cloudy
1:54 AM 71.6 °F 71.6 °F 100% 30.03 in 7.0 mi North 3.5 mph - N/A   Overcast
1:56 AM 71.1 °F 71.1 °F 100% 30.03 in 7.0 mi North 3.5 mph - N/A   Overcast
2:56 AM 71.1 °F 70.0 °F 96% 30.01 in 6.0 mi NNE 4.6 mph - 0.00 in Rain Light Rain
3:56 AM 71.1 °F 70.0 °F 96% 30.02 in 4.0 mi East 3.5 mph - 0.00 in   Overcast
4:29 AM 71.6 °F 71.6 °F 100% 30.03 in 1.8 mi ENE 4.6 mph - N/A   Overcast
4:36 AM 71.6 °F 69.8 °F 94% 30.04 in 0.8 mi ENE 4.6 mph - N/A   Overcast
4:51 AM 71.6 °F 71.6 °F 100% 30.04 in 0.8 mi East 4.6 mph - N/A   Overcast
4:56 AM 71.1 °F 71.1 °F 100% 30.04 in 0.8 mi East 4.6 mph - N/A   Overcast
5:10 AM 71.6 °F 71.6 °F 100% 30.04 in 1.2 mi East 4.6 mph - N/A   Overcast
5:21 AM 71.6 °F 71.6 °F 100% 30.05 in 2.5 mi Calm Calm - N/A   Overcast
5:39 AM 71.6 °F 71.6 °F 100% 30.04 in 3.0 mi ENE 3.5 mph - N/A   Overcast
5:56 AM 71.1 °F 71.1 °F 100% 30.05 in 4.0 mi ENE 5.8 mph - N/A   Overcast
6:09 AM 71.6 °F 71.6 °F 100% 30.05 in 4.0 mi Calm Calm - N/A   Overcast
6:53 AM 71.6 °F 71.6 °F 100% 30.07 in 4.0 mi NE 4.6 mph - 0.01 in   Overcast
6:56 AM 71.1 °F 71.1 °F 100% 30.08 in 4.0 mi ENE 4.6 mph - 0.01 in   Overcast
7:56 AM 72.0 °F 71.1 °F 97% 30.08 in 3.0 mi Calm Calm - 0.00 in   Overcast
8:00 AM 71.6 °F 71.6 °F 100% 30.07 in 2.5 mi NE 4.6 mph - N/A   Overcast
8:14 AM 71.6 °F 71.6 °F 100% 30.07 in 4.0 mi ENE 3.5 mph - N/A   Overcast
8:44 AM 73.4 °F 71.6 °F 94% 30.08 in 5.0 mi NNE 6.9 mph - N/A   Overcast
8:56 AM 72.0 °F 71.1 °F 97% 30.08 in 3.0 mi NNE 5.8 mph - N/A   Overcast
9:04 AM 71.6 °F 71.6 °F 100% 30.07 in 3.0 mi NNE 6.9 mph - N/A   Overcast
9:56 AM 73.0 °F 71.1 °F 93% 30.09 in 8.0 mi NNE 8.1 mph - N/A   Overcast
10:37 AM 73.4 °F 71.6 °F 94% 30.09 in 10.0 mi NE 6.9 mph - N/A   Overcast
10:52 AM 75.2 °F 71.6 °F 89% 30.09 in 10.0 mi ENE 5.8 mph - N/A   Overcast
10:56 AM 75.0 °F 71.1 °F 87% 30.10 in 10.0 mi NE 5.8 mph - N/A   Overcast
11:38 AM 75.2 °F 71.6 °F 89% 30.09 in 10.0 mi NE 6.9 mph - N/A   Overcast
11:56 AM 75.0 °F 71.1 °F 87% 30.10 in 10.0 mi NE 9.2 mph - N/A   Mostly Cloudy
12:19 PM 75.2 °F 71.6 °F 89% 30.09 in 10.0 mi ENE 6.9 mph - 0.00 in Rain Light Rain
12:36 PM 75.2 °F 71.6 °F 89% 30.09 in 10.0 mi ENE 8.1 mph - 0.00 in   Overcast
12:56 PM 75.0 °F 71.1 °F 87% 30.09 in 10.0 mi ENE 10.4 mph - 0.00 in Rain Light Rain
1:56 PM 75.9 °F 71.1 °F 85% 30.09 in 10.0 mi ENE 11.5 mph - 0.01 in   Mostly Cloudy
2:56 PM 77.0 °F 70.0 °F 79% 30.09 in 10.0 mi NE 10.4 mph - N/A   Overcast
3:34 PM 78.8 °F 71.6 °F 78% 30.08 in 10.0 mi ENE 10.4 mph - N/A   Mostly Cloudy
3:46 PM 78.8 °F 71.6 °F 78% 30.07 in 10.0 mi NE 9.2 mph - N/A   Mostly Cloudy
3:56 PM 78.1 °F 69.1 °F 74% 30.08 in 10.0 mi ENE 11.5 mph 17.3 mph N/A   Mostly Cloudy
4:56 PM 77.0 °F 69.1 °F 76% 30.08 in 10.0 mi ENE 10.4 mph - N/A   Mostly Cloudy
5:56 PM 75.9 °F 69.1 °F 79% 30.08 in 10.0 mi ENE 8.1 mph - N/A   Scattered Clouds
6:56 PM 75.0 °F 69.1 °F 82% 30.09 in 10.0 mi East 6.9 mph - N/A   Clear
7:56 PM 73.0 °F 69.1 °F 87% 30.09 in 10.0 mi ENE 4.6 mph - N/A   Scattered Clouds
8:07 PM 71.6 °F 69.8 °F 94% 30.08 in 10.0 mi ENE 4.6 mph - N/A   Mostly Cloudy
8:15 PM 71.6 °F 69.8 °F 94% 30.08 in 10.0 mi ENE 4.6 mph - N/A   Scattered Clouds
8:56 PM 72.0 °F 68.0 °F 87% 30.12 in 10.0 mi ENE 6.9 mph - N/A   Partly Cloudy
9:56 PM 70.0 °F 68.0 °F 93% 30.14 in 10.0 mi ENE 4.6 mph - N/A   Clear
10:56 PM 69.1 °F 66.0 °F 90% 30.14 in 10.0 mi ENE 4.6 mph - N/A   Clear
11:56 PM 66.9 °F 64.9 °F 93% 30.14 in 10.0 mi East 5.8 mph - N/A   Clear